Regional Weather Roundup
Issued by NWS

Home | Current Version | Previous Version | Text Only | Print | Product List | Glossary On
Versions: 1 2 3 4 5 6 7 8 9 10 11 12 13 14 15 16 17 18 19 20 21 22 23 24 25 26 27 28 29 30 31 32 33 34 35 36 37 38 39 40 41 42 43 44 45 46 47 48 49 50
000
ASUS45 KABQ 190210
RWRNM
NEW MEXICO REGIONAL WEATHER ROUNDUP
NATIONAL WEATHER SERVICE ALBUQUERQUE NM
700 PM MST SAT NOV 18 2017

NOTE: "FAIR" MEANS FEW OR NO CLOUDS BELOW 12,000 FEET AGL WITH NO
       SIGNIFICANT WEATHER OR OBSTRUCTIONS TO VISION.

      THIS PRODUCT IS RELEASED AS TWO VERSIONS.  ONE VERSION NEAR
      THE TOP OF THE HOUR CONTAINING PRELIMINARY DATA FROM ALBUQUERQUE
      AND OTHER STATIONS.  A FINAL VERSION WITH ADDITIONAL DATA IS
      ISSUED ABOUT 10 MINUTES AFTER THE HOUR.

NMZ501-503-504-510>518-190300-
NORTHWEST PLATEAU/NORTHCENTRAL MOUNTAINS

CITY           SKY/WX    TMP DP  RH WIND       PRES   REMARKS
FARMINGTON     FAIR      33   3  28 SW7       30.34S WCI  27
LOS ALAMOS     FAIR      37  10  31 SW8       30.34R WCI  31
SANTA FE       FAIR      35   8  32 CALM      30.33R
TAOS           FAIR      24   3  40 E6        30.36R WCI  17
ANGEL FIRE     FAIR      34   5  30 S9G18     30.34R WCI  26

$$
NMZ402-403-502-505>509-190300-
WESTCENTRAL MOUNTAINS/SOUTHWEST MOUNTAINS

CITY           SKY/WX    TMP DP  RH WIND       PRES   REMARKS
GALLUP         FAIR      32   8  36 E6        30.35R WCI  26
GRANTS         FAIR      29  -3  25 N5        30.37S WCI  24
SILVER CITY    FAIR      46  14  28 E8        30.27S

$$
NMZ407-409-411-412-190300-
SOUTHERN DESERTS

CITY           SKY/WX    TMP DP  RH WIND       PRES   REMARKS
DEMING         FAIR      47   8  20 NE7       30.26R
LAS CRUCES     FAIR      52  13  21 SE6       30.28R
HOLLOMAN AFB   FAIR      47   9  21 S7        30.30R
ALAMOGORDO     FAIR      48  10  21 S3        30.29R
T OR C         FAIR      48   1  14 N12       30.29R

$$
NMZ519>523-190300-
CENTRAL VALLEYS/CENTRAL HIGHLANDS

CITY           SKY/WX    TMP DP  RH WIND       PRES   REMARKS
ALBUQUERQUE    FAIR      44   6  21 N7        30.34R
DOUBLE EAGLE   CLEAR     34   3  27 NW8       30.35R WCI  27
MORIARTY ARPT  FAIR      31   6  35 N3        30.35R
CLINES CORNERS FAIR      31   5  33 NW6       30.34R WCI  25
BELEN          FAIR      38   3  23 CALM      30.33S
SOCORRO        FAIR      45  -1  14 NW8       30.31S

$$
NMZ524>526-539-540-190300-
SOUTHCENTRAL MOUNTAINS

CITY           SKY/WX    TMP DP  RH WIND       PRES   REMARKS
RUIDOSO        FAIR      36  19  51 SE10      30.37R WCI  28

$$
NMZ527>531-190300-
NORTHEAST HIGHLANDS/NORTHEAST PLAINS

CITY           SKY/WX    TMP DP  RH WIND       PRES   REMARKS
LAS VEGAS      FAIR      31  20  63 S15       30.30R WCI  20
RATON          FAIR      33  14  45 W3        30.30R
CLAYTON        FAIR      33  13  43 S6        30.30R WCI  28

$$
NMZ532>537-190300-
EASTCENTRAL PLAINS

CITY           SKY/WX    TMP DP  RH WIND       PRES   REMARKS
SANTA ROSA     FAIR      37  19  47 S8        30.30R WCI  30
TUCUMCARI      FAIR      37  14  38 S7        30.30R WCI  32
CANNON AFB     FAIR      38  14  37 E6        30.35R WCI  33
CLOVIS AIRPORT FAIR      34  13  41 CALM      30.35R

$$
NMZ028-029-538-190300-
SOUTHEAST PLAINS

CITY           SKY/WX    TMP DP  RH WIND       PRES   REMARKS
ROSWELL        FAIR      43  20  39 CALM      30.33R
ARTESIA        FAIR      50  18  27 E5        30.34R
CARLSBAD       FAIR      46  24  42 E7        30.32R
HOBBS          FAIR      41  14  33 E7        30.34R


$$




USA.gov is the U.S. government's official web portal to all federal, state and local government web resources and services.